Regional Weather Roundup
Issued by NWS

Home | Current Version | Previous Version | Graphics & Text | Print | Product List | Glossary On
Versions: 1 2 3 4 5 6 7 8 9 10 11 12 13 14 15 16 17 18 19 20 21 22 23 24 25 26 27 28 29 30 31 32 33 34 35 36 37 38 39 40 41 42 43 44 45 46 47 48 49 50
000
ASUS43 KBIS 200410
RWRND
NORTH DAKOTA REGIONAL WEATHER ROUNDUP
NATIONAL WEATHER SERVICE EASTERN NORTH DAKOTA/GRAND FORKS ND
1100 PM CDT THU APR 19 2018

  NOTE: "FAIR" INDICATES FEW OR NO CLOUDS BELOW 12,000 FEET WITH NO
  SIGNIFICANT WEATHER AND/OR OBSTRUCTIONS TO VISIBILITY.

NDZ001>003-009>011-017-200500-
...NORTHWEST NORTH DAKOTA...

CITY           SKY/WX    TMP DP  RH WIND       PRES   REMARKS
WILLISTON      FAIR      40  34  79 E7        30.29S
MINOT          FAIR      38  33  82 S3        30.33R
MINOT AFB      FAIR      33  32  96 SW5       30.32R WCI  29
$$

NDZ018>021-031>035-040>046-200500-
...SOUTHWEST NORTH DAKOTA...

CITY           SKY/WX    TMP DP  RH WIND       PRES   REMARKS
BISMARCK       FAIR      40  32  73 CALM      30.34R
DICKINSON      FAIR      37  29  72 E8        30.25R WCI  31
GARRISON         N/A     36  33  89 E6        30.32R WCI  31
HETTINGER      FAIR      42  28  57 SE13      30.27R
$$

NDZ004>008-012>016-024-026-027-054-200500-
...NORTHEAST NORTH DAKOTA...

CITY           SKY/WX    TMP DP  RH WIND       PRES   REMARKS
GRAND FORKS    FAIR      33  33 100 S6        30.38R WCI  28
GRAND FORKS AF FAIR      38  31  75 S5        30.37S WCI  34
DEVILS LAKE    FAIR      37  33  85 CALM      30.36S
$$

NDZ022-023-025-028>030-036>039-047>053-200500-
...SOUTHEAST NORTH DAKOTA...

CITY           SKY/WX    TMP DP  RH WIND       PRES   REMARKS
JAMESTOWN      FAIR      38  31  76 SE6       30.35S WCI  33
FARGO          FAIR      40  30  67 NE3       30.38S
WAHPETON       MOCLDY    43  32  65 S6        30.39S
$$




USA.gov is the U.S. government's official web portal to all federal, state and local government web resources and services.